contact:dominique.lefevre@mio.osupytheas.fr, maurice.libes@osupytheas.fr
Project:EMSO Ligure-ouest http://www.emso-fr.org/EMSO-France
Sensor Aquadopp, line 13 Serial AQD14315 
DOI : "https://doi.org/10.17882/74513; https://doi.org/10.17882/83244" 
Title:EMSO Ligure Ouest : Data ligne ALBATROSS capteur AQUADOPP - deploiement 2021
Id,Date,Profondeur,Latitude,Longitude,X_East,Y_North,Z_Up,Amplitude_X,Amplitude_Y,Amplitude_Z,Batterie,SoundSpeed,Heading,Pitch,Roll,Pressure,Temperature,Speed,Direction
, , m, degrees North, degrees East, m.s-1, m.s-1,m.s-1, 1, 1, 1, Volt, m.s-1, degree, degree, degree, dbar, degree_C, m.s-1, degree
13,2022-08-18T23:30:00,2400.0,42.79,6.0312,0.013,0.011,-0.012,65.0,62.0,63.0,13.0,1504.9,304.6,0.0,-0.5,2393.105,13.34,0.017,49.8
13,2022-08-19T00:00:00,2400.0,42.79,6.0312,0.02,0.002,-0.026,63.0,57.0,58.0,13.0,1504.9,306.6,-0.1,-0.4,2393.094,13.34,0.02,84.3
13,2022-08-19T00:30:00,2400.0,42.79,6.0312,0.004,-0.001,-0.02,70.0,62.0,60.0,13.0,1504.9,306.9,0.0,-0.4,2393.106,13.34,0.004,104.0
13,2022-08-19T01:00:00,2400.0,42.79,6.0312,0.007,-0.019,-0.01,69.0,57.0,60.0,13.0,1504.9,304.8,0.0,-0.4,2393.033,13.34,0.02,159.8
13,2022-08-19T01:30:00,2400.0,42.79,6.0312,-0.018,-0.032,-0.02,65.0,58.0,63.0,13.0,1504.9,303.3,0.0,-0.4,2393.034,13.34,0.036,209.4
13,2022-08-19T02:00:00,2400.0,42.79,6.0312,0.011,-0.021,0.037,69.0,57.0,62.0,13.0,1504.9,298.7,0.1,-0.3,2393.017,13.34,0.023,152.4
13,2022-08-19T02:30:00,2400.0,42.79,6.0312,0.0,-0.006,-0.023,66.0,60.0,62.0,13.0,1504.9,295.6,-0.1,-0.4,2393.069,13.34,0.006,180.0
13,2022-08-19T03:00:00,2400.0,42.79,6.0312,-0.012,0.003,-0.019,67.0,60.0,63.0,13.0,1504.9,298.1,0.0,-0.4,2393.054,13.34,0.012,284.0
13,2022-08-19T03:30:00,2400.0,42.79,6.0312,0.006,0.005,-0.017,70.0,59.0,64.0,13.0,1504.9,302.3,0.0,-0.4,2392.984,13.34,0.007,50.2
13,2022-08-19T04:00:00,2400.0,42.79,6.0312,0.0,0.017,-0.024,70.0,63.0,67.0,13.0,1504.9,305.3,0.0,-0.4,2392.983,13.34,0.017,0.0
13,2022-08-19T04:30:00,2400.0,42.79,6.0312,-0.012,0.012,-0.004,70.0,59.0,61.0,13.0,1504.9,305.6,0.1,-0.4,2393.049,13.34,0.016,315.0
13,2022-08-19T05:00:00,2400.0,42.79,6.0312,-0.008,0.034,-0.015,65.0,61.0,62.0,13.0,1504.9,306.5,0.0,-0.4,2392.998,13.34,0.034,346.8
13,2022-08-19T05:30:00,2400.0,42.79,6.0312,0.002,0.015,0.021,64.0,57.0,62.0,13.0,1504.9,305.6,0.0,-0.4,2392.936,13.34,0.015,7.6
13,2022-08-19T06:00:00,2400.0,42.79,6.0312,0.009,0.006,-0.027,64.0,60.0,58.0,13.0,1504.9,307.6,0.0,-0.4,2392.931,13.34,0.01,56.3
13,2022-08-19T06:30:00,2400.0,42.79,6.0312,0.003,0.022,0.03,64.0,59.0,62.0,13.0,1504.9,306.5,0.0,-0.3,2392.978,13.34,0.022,7.8
13,2022-08-19T07:00:00,2400.0,42.79,6.0312,0.024,-0.023,-0.025,65.0,58.0,64.0,13.0,1504.9,302.4,0.0,-0.4,2392.939,13.34,0.033,133.8
13,2022-08-19T07:30:00,2400.0,42.79,6.0312,0.0,-0.008,-0.041,67.0,62.0,65.0,13.0,1504.9,299.6,0.0,-0.4,2392.959,13.34,0.008,180.0
13,2022-08-19T08:00:00,2400.0,42.79,6.0312,0.003,0.011,-0.002,68.0,62.0,61.0,13.0,1504.9,299.6,0.0,-0.4,2392.946,13.34,0.011,15.3
13,2022-08-19T08:30:00,2400.0,42.79,6.0312,0.017,0.0,0.019,64.0,58.0,65.0,13.0,1504.9,303.1,0.0,-0.5,2392.986,13.34,0.017,90.0
13,2022-08-19T09:00:00,2400.0,42.79,6.0312,-0.001,0.016,0.006,63.0,58.0,60.0,13.0,1504.9,306.8,0.0,-0.4,2393.016,13.34,0.016,356.4
13,2022-08-19T09:30:00,2400.0,42.79,6.0312,-0.007,0.014,0.008,65.0,59.0,63.0,13.0,1504.9,310.7,0.0,-0.4,2393.001,13.34,0.015,333.4
13,2022-08-19T10:00:00,2400.0,42.79,6.0312,0.008,0.017,-0.003,66.0,61.0,62.0,13.0,1504.9,311.0,0.1,-0.4,2393.003,13.34,0.018,25.2
13,2022-08-19T10:30:00,2400.0,42.79,6.0312,0.019,0.008,-0.021,68.0,60.0,65.0,13.0,1504.9,310.4,0.0,-0.5,2393.048,13.34,0.02,67.2
13,2022-08-19T11:00:00,2400.0,42.79,6.0312,0.017,0.019,0.006,66.0,63.0,64.0,13.0,1504.9,306.1,0.0,-0.4,2393.034,13.34,0.025,41.8
13,2022-08-19T11:30:00,2400.0,42.79,6.0312,0.005,0.008,0.037,72.0,59.0,62.0,13.0,1504.9,302.9,0.0,-0.4,2393.064,13.34,0.009,32.0
13,2022-08-19T12:00:00,2400.0,42.79,6.0312,0.032,0.023,-0.01,63.0,57.0,60.0,13.0,1504.9,296.5,0.0,-0.4,2392.998,13.34,0.039,54.3
13,2022-08-19T13:00:00,2400.0,42.79,6.0312,0.017,0.006,-0.024,68.0,63.0,63.0,13.0,1504.9,285.7,-0.2,-0.4,2393.061,13.34,0.018,70.6
13,2022-08-19T13:30:00,2400.0,42.79,6.0312,0.012,-0.004,-0.019,67.0,58.0,62.0,13.0,1504.9,283.9,0.0,-0.5,2393.021,13.34,0.012,108.4
13,2022-08-19T14:00:00,2400.0,42.79,6.0312,0.0,0.01,-0.023,67.0,62.0,62.0,13.0,1504.9,285.3,0.0,-0.4,2393.068,13.34,0.01,0.0
13,2022-08-19T14:30:00,2400.0,42.79,6.0312,0.005,-0.022,0.0,69.0,60.0,61.0,13.0,1504.9,285.2,-0.1,-0.4,2393.057,13.34,0.022,167.2
13,2022-08-19T15:00:00,2400.0,42.79,6.0312,0.007,0.015,-0.011,65.0,60.0,60.0,13.0,1504.9,286.0,-0.1,-0.4,2393.005,13.34,0.016,25.0
13,2022-08-19T15:30:00,2400.0,42.79,6.0312,0.01,-0.001,0.0,69.0,61.0,61.0,13.0,1504.9,286.0,-0.1,-0.4,2393.047,13.34,0.01,95.7
13,2022-08-19T16:00:00,2400.0,42.79,6.0312,0.028,0.012,-0.008,64.0,60.0,61.0,13.0,1504.9,285.6,-0.1,-0.4,2392.991,13.34,0.03,66.8
13,2022-08-19T16:30:00,2400.0,42.79,6.0312,0.018,-0.002,0.002,63.0,57.0,63.0,13.0,1504.9,285.5,-0.1,-0.4,2393.025,13.34,0.018,96.3
13,2022-08-19T17:00:00,2400.0,42.79,6.0312,0.019,-0.019,-0.02,61.0,58.0,62.0,13.0,1504.9,287.7,-0.1,-0.4,2393.005,13.34,0.026,135.0
13,2022-08-19T17:30:00,2400.0,42.79,6.0312,0.003,0.007,-0.012,61.0,59.0,64.0,13.0,1504.9,286.9,-0.1,-0.5,2392.998,13.34,0.007,23.2
13,2022-08-19T18:00:00,2400.0,42.79,6.0312,-0.01,0.012,-0.02,69.0,60.0,61.0,13.0,1504.9,286.3,-0.2,-0.4,2392.996,13.34,0.015,320.2
13,2022-08-19T18:30:00,2400.0,42.79,6.0312,-0.001,-0.006,-0.023,65.0,59.0,62.0,13.0,1504.9,286.9,-0.1,-0.5,2393.021,13.34,0.006,189.5
13,2022-08-19T19:00:00,2400.0,42.79,6.0312,-0.003,-0.015,-0.001,68.0,72.0,68.0,13.0,1504.9,287.4,0.0,-0.5,2393.022,13.34,0.015,191.3
13,2022-08-19T19:30:00,2400.0,42.79,6.0312,0.011,-0.002,-0.018,66.0,61.0,54.0,13.0,1504.9,287.6,0.0,-0.5,2392.985,13.34,0.011,100.3
13,2022-08-19T20:00:00,2400.0,42.79,6.0312,-0.004,0.009,-0.005,70.0,57.0,67.0,13.0,1504.9,288.4,0.0,-0.4,2392.958,13.34,0.009,336.0
13,2022-08-19T20:30:00,2400.0,42.79,6.0312,-0.004,0.006,-0.021,64.0,59.0,59.0,13.0,1504.9,289.1,-0.1,-0.4,2392.971,13.34,0.007,326.3
13,2022-08-19T21:00:00,2400.0,42.79,6.0312,0.0,-0.037,0.018,69.0,61.0,60.0,13.0,1504.9,289.8,-0.1,-0.4,2392.971,13.34,0.037,180.0
13,2022-08-19T21:30:00,2400.0,42.79,6.0312,0.002,-0.015,-0.018,68.0,60.0,59.0,13.0,1504.9,288.8,0.0,-0.5,2393.01,13.34,0.015,172.4
13,2022-08-19T22:00:00,2400.0,42.79,6.0312,0.009,0.003,-0.013,67.0,61.0,61.0,13.0,1504.9,288.3,0.0,-0.4,2392.997,13.34,0.009,71.6
13,2022-08-19T22:30:00,2400.0,42.79,6.0312,0.003,0.014,-0.03,69.0,57.0,60.0,13.0,1504.9,288.2,0.0,-0.5,2393.032,13.34,0.014,12.1
13,2022-08-19T23:00:00,2400.0,42.79,6.0312,0.002,0.0,0.021,66.0,62.0,62.0,13.0,1504.9,286.2,-0.1,-0.4,2393.055,13.34,0.002,90.0
